Location: La Silve
(44.2414°N, 5.8889°E)
Time: 04:19:58
(UTC+00:00)

Tiangong - Pass Details

Date: 26 June 2021
Orbit: 373 x 386 km, 41.5° (Epoch: 01 August)

Event Time Altitude Azimuth Distance (km) Brightness Sun altitude
Exits shadow 01:33:06 36° 137° (SE) 621 1.9 -17.6°
Drops below altitude 10° 01:35:28 10° 97° (E) 1,390 4.1 -17.4°
Sets 01:37:36 0° 90° (E) 2,246 5.3 -17.2°
